Weather reports worldwide

Advertisment
Ueckermünde, Germany (10193): temperature & dewpoint: 11.10.2018 08:00:00 - 17.10.2018 08:00:00 (CEST)Ueckermünde, Germany (10193): temperature 5cm & temperature -5cm: 11.10.2018 08:00:00 - 17.10.2018 08:00:00 (CEST)Ueckermünde, Germany (10193): temperature -20cm & temperature -100cm: 11.10.2018 08:00:00 - 17.10.2018 08:00:00 (CEST)Ueckermünde, Germany (10193): wind speed & gusts: 11.10.2018 08:00:00 - 17.10.2018 08:00:00 (CEST)Ueckermünde, Germany (10193): wind direction: 11.10.2018 08:00:00 - 17.10.2018 08:00:00 (CEST)Ueckermünde, Germany (10193): reduced air pressure: 11.10.2018 08:00:00 - 17.10.2018 08:00:00 (CEST)Ueckermünde, Germany (10193): visibility: 11.10.2018 08:00:00 - 17.10.2018 08:00:00 (CEST)Ueckermünde, Germany (10193): sunshine duration: 11.10.2018 08:00:00 - 17.10.2018 08:00:00 (CEST)Ueckermünde, Germany (10193): precipitation: 11.10.2018 08:00:00 - 17.10.2018 08:00:00 (CEST)
Date & Time tt [°C] td [°C] tt 5cm [°C] tt -5cm [°C] tt -20cm [°C] tt -100cm [°C] ff [km/h] ff [kn] fx [km/h] fx [kn] dd ppp [hPa] vv [km] sd [min] rr [mm]
17.10.2018 08:00:00 4,3 4,3 1,2 7,5 11,8 13,9 0 0 5 3 N 1020,0 1,3 0 0,0
17.10.2018 07:00:00 3,6 3,5 1,3 7,8 12,0 13,9 4 2 6 3 SSW 1019,6 0,2 0 0,0
17.10.2018 06:00:00 4,8 4,6 2,0 8,1 12,2 13,9 5 3 6 3 S 1019,5 2,5 0 0,0
17.10.2018 05:00:00 5,7 5,7 2,7 8,4 12,4 13,9 3 2 7 4 WSW 1019,3 0,2 0 0,0
17.10.2018 04:00:00 6,2 6,2 2,7 8,7 12,6 13,9 3 1 8 4 SSE 1019,3 2,1 0 0,0
17.10.2018 03:00:00 7,1 7,1 3,8 8,9 12,8 13,9 5 3 9 5 S 1019,5 7 0 0,0
17.10.2018 02:00:00 6,0 5,9 4,7 9,3 13,0 13,9 4 2 7 4 SSW 1019,5 4,0 0 0,0
17.10.2018 01:00:00 6,7 6,5 3,5 9,7 13,3 13,9 5 3 7 4 S 1019,5 3,6 0 0,0
17.10.2018 00:00:00 7,0 6,7 3,9 10,1 13,5 13,9 4 2 5 3 SSE 1019,7 3,0 0 0,0
16.10.2018 23:00:00 8,7 8,7 4,2 10,6 13,7 13,9 3 2 5 3 SW 1019,8 4,2 0 0,0
16.10.2018 22:00:00 9,4 8,7 5,1 11,2 14,0 13,9 3 2 6 3 SSE 1019,7 6 0 0,0
16.10.2018 21:00:00 9,8 8,7 5,5 12,0 14,2 13,9 2 1 5 3 SSW 1019,7 10 0 0,0
16.10.2018 20:00:00 11,0 9,4 6,5 12,8 14,3 13,9 3 2 4 2 SSW 1019,6 13 0 0,0
16.10.2018 19:00:00 12,4 10,0 7,2 14,1 14,4 13,9 3 1 4 2 SE 1019,3 13 0 0,0
16.10.2018 18:00:00 14,3 11,7 10,8 15,8 14,3 13,9 3 1 8 4 ESE 1018,8 12 28 0,0
16.10.2018 17:00:00 16,7 11,7 16,6 17,2 14,0 13,9 7 4 13 7 E 1018,6 15 60 0,0
16.10.2018 16:00:00 17,0 11,5 18,3 18,0 13,6 13,9 7 4 13 7 ENE 1018,4 11 60 0,0
16.10.2018 15:00:00 16,3 11,4 18,4 18,1 13,2 13,9 10 5 14 8 ENE 1018,6 14 60 0,0
16.10.2018 14:00:00 16,1 10,7 19,0 17,6 12,7 13,9 7 4 12 7 NE 1018,7 14 60 0,0
16.10.2018 13:00:00 17,8 9,9 20,9 16,4 12,3 13,9 3 1 12 6 E 1018,7 21 60 0,0
16.10.2018 12:00:00 17,0 7,7 19,5 14,2 12,0 13,9 8 4 15 8 S 1019,0 25 60 0,0
16.10.2018 11:00:00 14,3 7,3 16,6 11,8 11,9 13,9 8 4 11 6 S 1018,9 18 60 0,0
16.10.2018 10:00:00 11,6 6,8 12,9 9,8 12,0 13,9 6 3 15 8 SSW 1018,8 17 60 0,0
16.10.2018 09:00:00 8,5 5,8 8,1 8,5 12,1 13,9 8 4 14 8 SW 1018,3 15 27 0,0
16.10.2018 08:00:00 8,0 5,4 6,2 8,0 12,3 13,9 9 5 14 8 S 1018,0 15 0 0,0
16.10.2018 07:00:00 5,8 4,6 2,5 8,2 12,6 13,9 4 2 7 4 WSW 1017,8 11 0 0,0
16.10.2018 06:00:00 7,0 5,0 2,1 8,5 12,8 13,9 4 2 9 5 SSW 1017,5 14 0 0,0
16.10.2018 05:00:00 7,3 4,7 3,0 8,8 13,0 13,9 6 3 14 7 SSW 1017,2 16 0 0,0
16.10.2018 04:00:00 7,1 5,0 4,7 9,1 13,2 13,9 7 4 10 6 S 1017,0 15 0 0,0
16.10.2018 03:00:00 7,1 5,4 2,7 9,4 13,5 13,9 0 0 9 5 N 1017,3 15 0 0,0
16.10.2018 02:00:00 7,2 5,0 3,6 9,8 13,7 13,9 7 4 11 6 SSW 1016,9 18 0 0,0
16.10.2018 01:00:00 7,3 5,7 3,4 10,3 14,0 13,9 5 3 7 4 S 1016,9 16 0 0,0
16.10.2018 00:00:00 8,4 6,0 4,4 10,9 14,2 13,9 4 2 6 3 S 1016,9 18 0 0,0
15.10.2018 23:00:00 10,4 6,4 5,7 11,5 14,5 13,9 6 3 9 5 ENE 1016,8 22 0 0,0
15.10.2018 22:00:00 11,8 6,2 5,9 12,2 14,7 13,9 5 3 12 6 SSW 1016,7 24 0 0,0
15.10.2018 21:00:00 14,3 6,3 11,2 13,0 14,9 13,9 11 6 14 7 S 1016,6 26 0 0,0
15.10.2018 20:00:00 13,9 6,5 7,1 13,9 15,1 13,9 4 2 10 6 SW 1016,6 25 0 0,0
15.10.2018 19:00:00 16,0 6,6 9,8 15,4 15,1 13,9 5 3 19 11 SSW 1016,4 26 0 0,0
15.10.2018 18:00:00 19,3 6,4 17,5 17,0 15,0 13,9 13 7 31 17 S 1015,7 34 49 0,0
15.10.2018 17:00:00 20,8 6,6 20,7 18,1 14,8 13,9 15 8 28 15 SSE 1015,6 23 47 0,0
15.10.2018 16:00:00 21,3 6,4 21,3 18,7 14,5 13,9 16 8 31 17 S 1015,6 56 59 0,0
15.10.2018 15:00:00 21,0 6,2 22,6 18,7 14,1 13,9 21 11 32 17 S 1015,5 18 45 0,0
15.10.2018 14:00:00 20,2 6,2 22,0 18,5 13,8 13,9 18 10 27 14 S 1015,9 29 58 0,0
15.10.2018 13:00:00 19,6 6,6 22,5 16,9 13,4 13,9 16 9 26 14 S 1015,9 23 53 0,0
15.10.2018 12:00:00 17,9 6,2 19,4 15,3 13,2 13,9 19 10 28 15 S 1016,1 21 56 0,0
15.10.2018 11:00:00 16,7 6,3 17,9 13,7 13,1 13,9 19 10 29 16 SSE 1016,2 29 60 0,0
15.10.2018 10:00:00 14,3 6,3 15,0 11,8 13,2 13,8 17 9 27 14 SSE 1016,1 19 60 0,0
15.10.2018 09:00:00 12,5 6,1 11,4 10,7 13,3 13,8 10 5 20 11 SSE 1015,9 26 38 0,0
15.10.2018 08:00:00 11,4 6,0 10,2 10,9 13,5 13,8 14 7 27 15 S 1015,8 29 0 0,0
15.10.2018 07:00:00 12,5 6,3 11,2 11,2 13,6 13,8 21 11 29 16 S 1015,5 34 0 0,0
15.10.2018 06:00:00 13,1 6,5 11,7 11,4 13,8 13,8 21 11 32 17 SSE 1015,4 32 0 0,0
15.10.2018 05:00:00 13,9 6,7 12,7 11,6 13,9 13,8 20 11 29 16 SSE 1015,2 34 0 0,0
15.10.2018 04:00:00 14,1 7,0 12,6 11,9 14,0 13,8 18 10 27 14 SSE 1015,4 32 0 0,0
15.10.2018 03:00:00 14,9 7,1 13,3 12,1 14,2 13,8 16 8 28 15 S 1015,3 31 0 0,0
15.10.2018 02:00:00 15,1 7,4 13,5 12,4 14,3 13,8 16 9 27 15 S 1015,2 32 0 0,0
15.10.2018 01:00:00 15,4 8,0 13,6 12,7 14,5 13,8 15 8 23 12 S 1015,0 30 0 0,0
15.10.2018 00:00:00 16,0 8,3 14,2 13,1 14,6 13,8 16 9 25 13 S 1014,9 31 0 0,0
14.10.2018 23:00:00 16,7 8,5 15,0 13,5 14,8 13,8 16 9 28 15 SSE 1014,8 29 0 0,0
14.10.2018 22:00:00 17,6 8,9 16,0 13,9 14,9 13,8 17 9 26 14 SSE 1015,0 29 0 0,0
14.10.2018 21:00:00 18,1 9,0 16,3 14,4 15,0 13,8 15 8 26 14 SSE 1015,0 28 0 0,0
14.10.2018 20:00:00 19,0 9,0 17,2 15,0 15,1 13,8 15 8 26 14 SSE 1015,1 31 0 0,0
14.10.2018 19:00:00 20,1 8,6 18,4 15,8 15,1 13,8 14 7 23 12 SSE 1015,1 34 0 0,0
14.10.2018 18:00:00 21,0 7,9 18,8 17,2 15,0 13,8 12 6 26 14 S 1014,9 36 52 0,0
14.10.2018 17:00:00 22,9 7,6 22,4 18,6 14,7 13,8 17 9 38 20 S 1015,0 18 60 0,0
14.10.2018 16:00:00 23,0 8,3 23,6 19,1 14,4 13,8 26 14 44 24 SSE 1014,8 14 60 0,0
14.10.2018 15:00:00 22,3 8,5 23,6 19,0 14,0 13,8 21 11 44 24 SSE 1015,4 13 60 0,0
14.10.2018 14:00:00 21,8 8,6 23,5 18,4 13,5 13,8 27 15 45 24 SSE 1015,9 8 60 0,0
14.10.2018 13:00:00 20,7 8,8 22,7 17,3 13,1 13,8 26 14 44 24 SSE 1016,6 9 60 0,0
14.10.2018 12:00:00 19,5 8,4 21,0 15,4 12,8 13,8 27 14 42 23 SSE 1017,0 18 60 0,0
14.10.2018 11:00:00 17,4 9,4 18,7 13,2 12,7 13,8 18 10 29 15 SSE 1017,6 18 60 0,0
14.10.2018 10:00:00 14,9 9,0 15,5 11,1 12,8 13,7 9 5 18 10 SE 1018,3 18 60 0,0
14.10.2018 09:00:00 12,4 8,6 11,0 9,4 13,0 13,7 8 5 18 10 SSE 1018,3 13 40 0,0
14.10.2018 08:00:00 9,9 8,1 7,2 9,0 13,2 13,7 4 2 12 7 SSE 1018,5 10 0 0,0
14.10.2018 07:00:00 10,0 8,3 5,6 9,4 13,5 13,7 5 3 12 6 SE 1018,8 11 0 0,0
14.10.2018 06:00:00 9,9 8,4 4,1 9,8 13,8 13,7 5 3 10 6 SSE 1019,2 9 0 0,0
14.10.2018 05:00:00 11,0 8,9 5,0 10,5 14,0 13,7 5 3 10 5 S 1019,6 11 0 0,0
14.10.2018 04:00:00 11,4 8,9 6,2 11,3 14,2 13,7 6 3 16 9 S 1020,2 12 0 0,0
14.10.2018 03:00:00 13,2 9,5 11,4 11,7 14,4 13,7 11 6 19 10 SSE 1020,7 14 0 0,0
14.10.2018 02:00:00 13,2 9,6 11,1 12,3 14,6 13,7 10 6 24 13 SSE 1021,0 14 0 0,0
14.10.2018 01:00:00 14,9 10,0 13,2 12,6 14,8 13,7 15 8 27 14 SSE 1021,3 16 0 0,0
14.10.2018 00:00:00 15,4 10,4 13,4 12,7 15,0 13,7 13 7 23 12 SSE 1021,5 16 0 0,0
13.10.2018 23:00:00 15,3 10,2 9,8 13,4 15,2 13,7 5 3 17 9 S 1021,8 16 0 0,0
13.10.2018 22:00:00 16,9 10,3 14,4 14,3 15,4 13,7 10 5 22 12 SSE 1022,2 18 0 0,0
13.10.2018 21:00:00 17,9 10,3 16,0 15,1 15,6 13,7 13 7 27 14 SSE 1022,3 21 0 0,0
13.10.2018 20:00:00 19,2 11,1 17,3 15,8 15,7 13,7 13 7 26 14 SE 1022,3 21 0 0,0
13.10.2018 19:00:00 20,2 11,5 18,1 16,8 15,7 13,7 12 6 19 10 SE 1022,5 25 0 0,0
13.10.2018 18:00:00 21,8 11,3 17,8 18,5 15,6 13,7 6 4 16 9 SE 1022,6 24 57 0,0
13.10.2018 17:00:00 23,8 11,5 23,6 20,1 15,3 13,7 10 5 23 12 SSE 1022,8 29 60 0,0
13.10.2018 16:00:00 24,6 11,7 25,4 20,8 14,8 13,7 13 7 24 13 S 1023,1 21 60 0,0
13.10.2018 15:00:00 24,1 11,6 26,0 20,8 14,3 13,6 15 8 24 13 SSW 1023,5 15 60 0,0
13.10.2018 14:00:00 23,5 12,0 25,9 20,1 13,8 13,6 13 7 24 13 SSW 1024,0 14 60 0,0
13.10.2018 13:00:00 22,2 11,8 25,0 18,9 13,3 13,6 16 8 22 12 S 1024,3 18 60 0,0
13.10.2018 12:00:00 21,0 12,1 23,5 16,8 13,0 13,6 13 7 21 11 S 1024,7 16 60 0,0
13.10.2018 11:00:00 18,3 11,4 20,1 14,3 12,8 13,6 9 5 26 14 SSE 1024,9 15 60 0,0
13.10.2018 10:00:00 15,5 10,8 16,3 12,0 12,8 13,6 18 10 24 13 SSE 1025,0 12 60 0,0
13.10.2018 09:00:00 13,2 10,1 12,7 10,5 12,9 13,6 11 6 16 9 S 1025,2 11 43 0,0
13.10.2018 08:00:00 11,9 9,8 10,6 10,2 13,1 13,6 10 5 16 8 S 1024,9 10 0 0,0
13.10.2018 07:00:00 11,1 9,4 9,1 10,3 13,2 13,6 8 5 14 8 SSW 1024,7 9 0 0,0
13.10.2018 06:00:00 11,4 9,6 8,5 10,4 13,4 13,6 8 5 12 7 S 1024,7 10 0 0,0
13.10.2018 05:00:00 10,4 9,0 7,1 11,0 13,6 13,6 4 2 14 7 SW 1024,7 8 0 0,0
13.10.2018 04:00:00 13,2 10,1 11,7 11,3 13,7 13,6 9 5 15 8 S 1024,5 12 0 0,0
13.10.2018 03:00:00 12,5 9,9 10,4 11,4 13,9 13,6 9 5 13 7 S 1024,5 12 0 0,0
13.10.2018 02:00:00 13,0 10,1 10,5 11,7 14,1 13,6 9 5 16 8 S 1024,4 13 0 0,0
13.10.2018 01:00:00 13,8 10,3 11,6 12,1 14,3 13,6 11 6 15 8 S 1024,3 15 0 0,0
13.10.2018 00:00:00 15,3 10,8 13,6 12,3 14,5 13,5 13 7 19 10 S 1024,2 16 0 0,0
12.10.2018 23:00:00 13,8 11,0 10,7 12,3 14,8 13,5 11 6 16 9 SSE 1024,4 15 0 0,0
12.10.2018 22:00:00 11,3 10,0 7,7 13,0 15,0 13,5 6 4 9 5 S 1024,5 8 0 0,0
12.10.2018 21:00:00 12,7 11,3 8,4 13,8 15,2 13,5 3 1 7 4 SE 1024,4 9 0 0,0
12.10.2018 20:00:00 14,7 10,7 9,4 14,9 15,4 13,5 7 4 10 5 S 1024,2 9 0 0,0
12.10.2018 19:00:00 18,5 11,6 11,8 16,3 15,4 13,5 7 4 14 7 SSE 1023,5 22 1 0,0
12.10.2018 18:00:00 20,8 11,3 19,2 18,2 15,3 13,5 10 6 22 12 SSE 1022,8 20 60 0,0
12.10.2018 17:00:00 23,0 10,5 22,8 19,5 15,0 13,5 15 8 26 14 S 1022,7 16 60 0,0
12.10.2018 16:00:00 23,5 10,6 24,2 20,2 14,6 13,5 16 9 29 16 S 1022,7 18 60 0,0
12.10.2018 15:00:00 23,3 11,0 24,9 20,2 14,1 13,5 14 8 24 13 S 1022,3 15 60 0,0
12.10.2018 14:00:00 22,3 10,9 24,5 19,6 13,6 13,5 17 9 27 14 SSW 1022,5 13 60 0,0
12.10.2018 13:00:00 21,0 11,0 23,6 18,3 13,2 13,5 14 8 24 13 S 1022,6 16 60 0,0
12.10.2018 12:00:00 19,5 11,2 21,6 16,3 12,8 13,5 18 10 31 17 S 1022,8 15 60 0,0
12.10.2018 11:00:00 17,8 10,7 19,2 14,1 12,7 13,5 16 9 28 15 S 1022,3 16 60 0,0
12.10.2018 10:00:00 15,7 10,2 16,5 12,1 12,7 13,5 12 7 24 13 S 1022,2 20 60 0,0
12.10.2018 09:00:00 13,5 9,8 12,8 10,6 12,8 13,5 14 8 24 13 SSE 1021,3 11 46 0,0
12.10.2018 08:00:00 11,8 9,4 10,2 10,4 13,0 13,5 11 6 19 11 S 1021,3 14 0 0,0
12.10.2018 07:00:00 12,4 9,5 10,8 10,8 13,1 13,4 11 6 22 12 SSE 1020,6 15 0 0,0
12.10.2018 06:00:00 13,0 9,8 11,6 11,0 13,3 13,4 13 7 22 12 SSE 1020,5 15 0 0,0
12.10.2018 05:00:00 13,8 10,0 12,2 11,3 13,4 13,4 12 7 22 12 S 1020,2 16 0 0,0
12.10.2018 04:00:00 14,1 10,4 12,3 11,3 13,6 13,4 12 6 18 10 SSE 1019,8 16 0 0,0
12.10.2018 03:00:00 14,5 10,7 12,0 11,8 13,7 13,4 8 4 18 10 SE 1019,9 15 0 0,0
12.10.2018 02:00:00 15,2 10,9 13,5 12,3 13,9 13,4 10 5 25 13 SSE 1019,8 15 0 0,0
12.10.2018 01:00:00 15,9 11,2 13,8 12,8 14,0 13,4 11 6 25 14 SSE 1019,6 16 0 0,0
12.10.2018 00:00:00 16,9 11,4 15,3 13,1 14,1 13,4 16 9 27 15 SSE 1019,5 16 0 0,0
11.10.2018 23:00:00 17,6 11,4 16,0 13,4 14,3 13,4 14 8 35 19 SE 1019,2 17 0 0,0
11.10.2018 22:00:00 18,0 11,4 16,4 13,6 14,4 13,4 16 8 29 15 SE 1018,9 18 0 0,0
11.10.2018 21:00:00 17,7 10,9 15,7 13,9 14,6 13,4 10 6 21 11 SSE 1019,1 21 0 0,0
11.10.2018 20:00:00 18,8 10,3 16,7 14,6 14,7 13,4 12 6 21 11 SE 1018,9 19 0 0,0
11.10.2018 19:00:00 19,8 9,9 16,9 15,7 14,7 13,4 8 5 22 12 ESE 1018,5 24 1 0,0
11.10.2018 18:00:00 21,5 9,8 19,9 17,3 14,6 13,4 14 8 34 18 SE 1018,0 26 60 0,0
11.10.2018 17:00:00 22,9 9,9 22,5 18,5 14,3 13,4 18 10 37 20 SE 1017,9 19 60 0,0
11.10.2018 16:00:00 23,0 10,5 23,5 18,7 14,0 13,4 19 10 34 19 SE 1018,2 17 27 0,0
11.10.2018 15:00:00 22,5 9,7 22,6 19,3 13,5 13,4 19 10 35 19 SE 1018,7 24 44 0,0
11.10.2018 14:00:00 22,3 11,0 24,1 19,0 13,0 13,4 18 10 37 20 SE 1019,3 16 60 0,0
11.10.2018 13:00:00 21,7 11,2 23,6 17,8 12,5 13,4 18 10 37 20 SSE 1019,8 11 60 0,0
11.10.2018 12:00:00 19,7 10,7 21,4 16,0 12,2 13,4 20 11 37 20 SSE 1020,3 13 60 0,0
11.10.2018 11:00:00 18,0 11,0 19,0 13,7 12,0 13,4 16 9 29 16 SSE 1020,7 15 60 0,0
11.10.2018 10:00:00 15,8 10,6 16,1 11,8 12,0 13,4 15 8 28 15 SE 1020,6 11 60 0,0
11.10.2018 09:00:00 13,5 10,4 13,0 10,2 12,1 13,4 11 6 21 12 SE 1020,7 11 47 0,0
11.10.2018 08:00:00 12,5 10,5 11,2 10,0 12,2 13,4 9 5 23 12 SE 1020,7 8 0 0,0

tt = temperature
td = dewpoint
tt 5cm = temperature 5cm
tt -5cm = temperature -5cm
tt -20cm = temperature -20cm
tt -100cm = temperature -100cm
ff = wind speed
fx = gusts
dd = wind direction
ppp = reduced air pressure
vv = visibility
sd = sunshine duration
rr = precipitation

Next stations